{"data":{"norad_id":64726,"epoch":"2026-09-20T12:12:33.414912Z","epoch_age_seconds":127215,"freshness":"FRESH","line1":"1 64726U 25144C   26263.50872008  .00012404  00000+0  37760-3 0  9996","line2":"2 64726  53.1610 353.7118 0000973  98.2266 261.8847 15.34403056 69577","mean_motion":15.34403056,"eccentricity":9.73e-5,"inclination_deg":53.161,"raan_deg":353.7118,"arg_perigee_deg":98.2266,"mean_anomaly_deg":261.8847,"bstar":0.0003776,"rev_number":6957,"period_min":93.847571169071,"perigee_km":462.02854427457,"apogee_km":463.35977001775,"semimajor_km":6840.8311571462,"source":"CELESTRAK","updated_at":"2026-09-21T09:00:35.408957Z"}}